Location: L�Adrech
(44.2500°N, 6.4167°E)
Time: 21:11:02
(UTC+00:00)

Cosmos 1328 - Pass Details

Date: 07 June 2020
Orbit: 538 x 545 km, 82.5° (Epoch: 13 July)

Event Time Altitude Azimuth Distance (km) Brightness Sun altitude
Exits shadow 01:00:07 41° 260° (W) 801 4.3 -20.1°
Maximum altitude 01:00:38 43° 282° (WNW) 770 4.4 -20.0°
Drops below altitude 10° 01:04:28 10° 356° (N) 1,823 7.4 -19.8°
Sets 01:06:44 0° 3° (N) 2,720 8.6 -19.6°
